• In Hungary
  • List of Countries
  • For 7 days
  • Water Temperature
  • Satellite Maps
  • Weather Map
  • News
  • Weather Widgets
  • user-avatar
    Login

    Hourly Weather Vlasim

    Today, 22 October, Sunday

    Time Temperature Precipitation Wind Pressure Humidity
    00:00 +13°C° 0.5 mm 1 mps 727 mmHg 91%
    01:00 +13°C° 0.5 mm 2 mps 727 mmHg 92%
    02:00 +13°C° 0.8 mm 2 mps 727 mmHg 92%
    03:00 +13°C° 0.8 mm 2 mps 727 mmHg 92%
    04:00 +12°C° 0.8 mm 3 mps 727 mmHg 92%
    05:00 +11°C° 1.7 mm 4 mps 727 mmHg 92%
    06:00 +10°C° 1.7 mm 4 mps 727 mmHg 91%
    07:00 +9°C° 1.7 mm 5 mps 727 mmHg 91%
    08:00 +9°C° 0.5 mm 5 mps 727 mmHg 89%
    09:00 +9°C° 0.5 mm 5 mps 728 mmHg 86%
    10:00 +10°C° 0.5 mm 5 mps 728 mmHg 84%
    11:00 +10°C° 0 mm 5 mps 728 mmHg 79%
    12:00 +12°C° 0 mm 5 mps 728 mmHg 74%
    13:00 +12°C° 0 mm 5 mps 727 mmHg 69%
    14:00 +12°C° 0 mm 4 mps 727 mmHg 70%
    15:00 +11°C° 0 mm 4 mps 727 mmHg 72%
    16:00 +11°C° 0 mm 3 mps 727 mmHg 73%
    17:00 +10°C° 0 mm 3 mps 727 mmHg 75%
    18:00 +9°C° 0 mm 3 mps 727 mmHg 76%
    19:00 +9°C° 0 mm 3 mps 727 mmHg 78%
    20:00 +8°C° 0 mm 3 mps 727 mmHg 79%
    21:00 +8°C° 0 mm 3 mps 728 mmHg 81%
    22:00 +7°C° 0 mm 3 mps 728 mmHg 83%
    23:00 +7°C° 0 mm 3 mps 728 mmHg 84%

    Tomorrow, 23 October, Monday

    Time Temperature Precipitation Wind Pressure Humidity
    00:00 +7°C° 0 mm 3 mps 728 mmHg 84%
    01:00 +7°C° 0 mm 3 mps 728 mmHg 85%
    02:00 +7°C° 0 mm 3 mps 728 mmHg 85%
    03:00 +7°C° 0 mm 3 mps 728 mmHg 85%
    04:00 +7°C° 0 mm 3 mps 728 mmHg 86%
    05:00 +6°C° 0 mm 4 mps 728 mmHg 86%
    06:00 +5°C° 0 mm 4 mps 728 mmHg 86%
    07:00 +5°C° 0 mm 4 mps 728 mmHg 86%
    08:00 +6°C° 0 mm 4 mps 728 mmHg 82%
    09:00 +7°C° 0 mm 5 mps 729 mmHg 77%
    10:00 +8°C° 0 mm 5 mps 729 mmHg 73%
    11:00 +8°C° 0 mm 5 mps 729 mmHg 73%
    12:00 +8°C° 0 mm 5 mps 729 mmHg 73%
    13:00 +8°C° 0 mm 5 mps 729 mmHg 73%
    14:00 +8°C° 0.1 mm 5 mps 729 mmHg 76%
    15:00 +8°C° 0.1 mm 5 mps 729 mmHg 79%
    16:00 +7°C° 0.1 mm 5 mps 729 mmHg 82%
    17:00 +7°C° 0.1 mm 5 mps 730 mmHg 83%
    18:00 +7°C° 0.1 mm 5 mps 730 mmHg 83%
    19:00 +7°C° 0.1 mm 5 mps 730 mmHg 84%
    20:00 +7°C° 0.1 mm 5 mps 731 mmHg 85%
    21:00 +7°C° 0.1 mm 5 mps 731 mmHg 86%
    22:00 +7°C° 0.1 mm 5 mps 731 mmHg 87%
    23:00 +7°C° 0 mm 4 mps 731 mmHg 88%

    Day after tomorrow, 24 October, Tuesday

    Time Temperature Precipitation Wind Pressure Humidity
    00:00 +7°C° 0 mm 4 mps 731 mmHg 89%
    01:00 +6°C° 0 mm 4 mps 732 mmHg 90%
    02:00 +6°C° 0 mm 4 mps 732 mmHg 91%
    03:00 +7°C° 0 mm 3 mps 732 mmHg 92%
    04:00 +7°C° 0 mm 3 mps 732 mmHg 93%
    05:00 +7°C° 0 mm 3 mps 732 mmHg 93%
    06:00 +5°C° 0 mm 3 mps 733 mmHg 94%
    07:00 +6°C° 0 mm 2 mps 733 mmHg 94%
    08:00 +7°C° 0 mm 3 mps 733 mmHg 89%
    09:00 +9°C° 0 mm 3 mps 734 mmHg 84%
    10:00 +10°C° 0 mm 3 mps 734 mmHg 79%
    11:00 +11°C° 0 mm 3 mps 734 mmHg 75%
    12:00 +12°C° 0 mm 3 mps 734 mmHg 71%
    13:00 +12°C° 0 mm 3 mps 734 mmHg 67%
    14:00 +13°C° 0 mm 2 mps 734 mmHg 69%
    15:00 +13°C° 0 mm 2 mps 734 mmHg 72%
    16:00 +12°C° 0 mm 1 mps 734 mmHg 74%
    17:00 +11°C° 0 mm 1 mps 735 mmHg 78%
    18:00 +10°C° 0 mm 1 mps 735 mmHg 82%
    19:00 +9°C° 0 mm 1 mps 735 mmHg 86%
    20:00 +9°C° 0 mm 1 mps 735 mmHg 88%
    21:00 +9°C° 0 mm 1 mps 735 mmHg 89%
    22:00 +9°C° 0 mm 1 mps 735 mmHg 91%
    23:00 +9°C° 0 mm 1 mps 735 mmHg 91%

    25 October, Wednesday

    Time Temperature Precipitation Wind Pressure Humidity
    00:00 +9°C° 0 mm 1 mps 735 mmHg 92%
    01:00 +9°C° 0 mm 1 mps 736 mmHg 93%
    02:00 +9°C° 0 mm 1 mps 735 mmHg 93%
    03:00 +9°C° 0 mm 1 mps 735 mmHg 94%
    04:00 +8°C° 0 mm 1 mps 735 mmHg 95%
    05:00 +9°C° 0 mm 1 mps 735 mmHg 95%
    06:00 +9°C° 0 mm 1 mps 735 mmHg 95%
    07:00 +9°C° 0 mm 1 mps 735 mmHg 95%
    08:00 +9°C° 0 mm 2 mps 736 mmHg 90%
    09:00 +10°C° 0 mm 2 mps 736 mmHg 86%
    10:00 +13°C° 0 mm 2 mps 736 mmHg 81%
    11:00 +14°C° 0 mm 2 mps 736 mmHg 77%
    12:00 +15°C° 0 mm 2 mps 735 mmHg 73%
    13:00 +16°C° 0 mm 2 mps 735 mmHg 69%
    14:00 +16°C° 0 mm 2 mps 735 mmHg 72%
    15:00 +15°C° 0 mm 1 mps 735 mmHg 75%
    16:00 +15°C° 0 mm 1 mps 735 mmHg 77%
    17:00 +14°C° 0 mm 1 mps 735 mmHg 81%
    18:00 +13°C° 0 mm 1 mps 735 mmHg 84%
    19:00 +12°C° 0 mm 2 mps 735 mmHg 88%
    20:00 +12°C° 0 mm 2 mps 735 mmHg 89%
    21:00 +10°C° 0 mm 2 mps 735 mmHg 89%
    22:00 +10°C° 0 mm 2 mps 735 mmHg 90%
    23:00 +10°C° 0 mm 2 mps 735 mmHg 90%

    26 October, Thursday

    Time Temperature Precipitation Wind Pressure Humidity
    00:00 +10°C° 0 mm 2 mps 735 mmHg 90%
    01:00 +10°C° 0 mm 2 mps 735 mmHg 91%
    02:00 +10°C° 0 mm 2 mps 735 mmHg 91%
    03:00 +9°C° 0 mm 2 mps 735 mmHg 91%
    04:00 +9°C° 0 mm 2 mps 735 mmHg 91%
    05:00 +9°C° 0 mm 2 mps 735 mmHg 91%
    06:00 +9°C° 0 mm 2 mps 735 mmHg 91%
    07:00 +9°C° 0 mm 2 mps 735 mmHg 90%
    08:00 +12°C° 0 mm 2 mps 736 mmHg 84%
    09:00 +13°C° 0 mm 2 mps 736 mmHg 78%
    10:00 +15°C° 0 mm 2 mps 736 mmHg 72%
    11:00 +16°C° 0 mm 3 mps 736 mmHg 68%
    12:00 +17°C° 0 mm 3 mps 735 mmHg 65%
    13:00 +18°C° 0 mm 3 mps 735 mmHg 61%
    14:00 +17°C° 0 mm 3 mps 734 mmHg 65%
    15:00 +17°C° 0 mm 2 mps 734 mmHg 69%
    16:00 +16°C° 0 mm 2 mps 734 mmHg 73%
    17:00 +15°C° 0 mm 2 mps 734 mmHg 77%
    18:00 +14°C° 0 mm 2 mps 734 mmHg 80%
    19:00 +13°C° 0 mm 2 mps 733 mmHg 84%
    20:00 +13°C° 0 mm 2 mps 733 mmHg 86%
    21:00 +11°C° 0 mm 3 mps 733 mmHg 87%
    22:00 +11°C° 0 mm 3 mps 733 mmHg 88%
    23:00 +11°C° 0 mm 3 mps 733 mmHg 89%

    27 October, Friday

    Time Temperature Precipitation Wind Pressure Humidity
    00:00 +10°C° 0 mm 3 mps 732 mmHg 89%
    01:00 +10°C° 0 mm 3 mps 732 mmHg 90%
    02:00 +10°C° 0 mm 3 mps 731 mmHg 90%
    03:00 +10°C° 0 mm 3 mps 731 mmHg 90%
    04:00 +10°C° 0 mm 3 mps 730 mmHg 90%
    05:00 +10°C° 0 mm 4 mps 730 mmHg 90%
    06:00 +10°C° 0 mm 4 mps 729 mmHg 90%
    07:00 +10°C° 0 mm 4 mps 729 mmHg 90%
    08:00 +10°C° 0 mm 5 mps 729 mmHg 86%
    09:00 +10°C° 0 mm 6 mps 729 mmHg 82%
    10:00 +11°C° 0 mm 7 mps 730 mmHg 78%
    11:00 +11°C° 0.4 mm 6 mps 729 mmHg 79%
    12:00 +10°C° 0.4 mm 6 mps 729 mmHg 80%
    13:00 +10°C° 0.4 mm 5 mps 729 mmHg 82%
    14:00 +10°C° 0.2 mm 5 mps 729 mmHg 81%
    15:00 +10°C° 0.2 mm 5 mps 729 mmHg 80%
    16:00 +11°C° 0.2 mm 4 mps 729 mmHg 79%
    17:00 +9°C° 0.1 mm 5 mps 729 mmHg 79%
    18:00 +8°C° 0.1 mm 5 mps 729 mmHg 80%
    19:00 +8°C° 0.1 mm 5 mps 729 mmHg 81%
    20:00 +7°C° 0 mm 5 mps 730 mmHg 81%
    21:00 +7°C° 0 mm 5 mps 730 mmHg 80%
    22:00 +7°C° 0 mm 4 mps 730 mmHg 80%
    23:00 +6°C° 0 mm 4 mps 730 mmHg 81%
    Show more